Wetterstats.de || Aktuelle Messwerte || Aktuelle Wetterkarten NEU! || Radar / Satellit NEU! || Wetterarchiv || Langzeitwerte NEU! || Klim. Kenntage || Met. Ereignisse || Agrarwerte || Echtzeitwerte

Monatsübersicht für Mai 2020 Diagramm
 
Wetter Information zur Wetteranzeige
Zeitraffer
Tageslänge (hh:mm)
Höchsttemperatur in °C
Uhrzeit
Tiefsttemperatur in °C
Uhrzeit
Luftfeuchte (max., in %)
Uhrzeit
Luftfeuchte (min., in %)
Uhrzeit
Luftdruck (max., in hPa)
Uhrzeit
Luftdruck (min., in hPa)
Uhrzeit
Luftdruck (Ø, in hPa)
Regenrate (max, mm/h)
Uhrzeit
Niederschlag in mm
Verdunstung in mm
Solar in W/m² (Ø)
Solar in W/m² (max.)
UV-Index (max.)
Sonnenscheindauer (hh:mm)
Windrichtung (Ø)
Windstärke (Ø in km/h)
Windstärke (Ø in bft)
Windböe (max., in km/h)
Uhrzeit
Windböe (max., in bft)
Uhrzeit
Taupunkt (max., in °C)
Uhrzeit
Taupunkt (min., in °C)
Uhrzeit
Windchill (min., in °C)
Uhrzeit
Gewitterindex (max.)
Uhrzeit
Waldbrandindex (max.)
Uhrzeit
Graslandfeuerindex (max.)
Uhrzeit
Staubsturm-Index (max.)
Uhrzeit
01
Zeitraffer
15:04
17.8
16:30 Uhr
9.6
06:40 Uhr

86
00:55 Uhr
44
16:20 Uhr
1002.6
09:55 Uhr

1000.4
17:55 Uhr
1001.7
2,400
00:35 Uhr
0,200
2.972
272
1015
12:45 Uhr
5.3
12:45 Uhr

04:09:00
8,3
2
41,8
13:50 Uhr

6
10.0
01:40 Uhr
5.0
16:20 Uhr
6.4
03:50 Uhr
2
00:00 Uhr
5.9
00:00 Uhr
5.9
00:00 Uhr
3.8
13:50 Uhr
02
Zeitraffer
15:07
14.4
14:35 Uhr
5.8
06:10 Uhr

94
06:05 Uhr
62
14:45 Uhr
1010.1
23:45 Uhr

1002.1
00:10 Uhr
1005.2
4,800
11:50 Uhr
4,000
1.727
190
893
13:55 Uhr
4.7
13:55 Uhr

04:34:00
5,8
1
32,2
14:45 Uhr

5
9.2
16:35 Uhr
4.7
06:10 Uhr
5.8
06:10 Uhr
0
00:00 Uhr
5.9
00:00 Uhr
5.9
00:00 Uhr
3.5
14:50 Uhr
03
Zeitraffer
15:11
15.0
17:25 Uhr
6.9
05:15 Uhr

92
00:00 Uhr
50
18:15 Uhr
1017.8
23:05 Uhr

1010.0
00:00 Uhr
1015.4
0,000
00:00 Uhr
0,000
2.210
223
990
12:45 Uhr
5.4
12:35 Uhr

03:29:00
6,8
1
27,4
10:40 Uhr

4
7.3
09:10 Uhr
4.3
18:20 Uhr
2.5
05:25 Uhr
0
00:00 Uhr
5.7
18:25 Uhr
5.9
00:00 Uhr
3.1
10:50 Uhr
04
Zeitraffer
15:14
12.9
11:55 Uhr
4.3
05:05 Uhr

94
05:25 Uhr
70
17:50 Uhr
1017.7
00:35 Uhr

1016.3
17:05 Uhr
1017.0
0,000
00:00 Uhr
0,000
1.016
120
408
13:25 Uhr
2.7
13:25 Uhr

00:14:00
2,5
1
19,3
13:20 Uhr

3
9.2
11:10 Uhr
2.5
23:55 Uhr
4.3
05:05 Uhr
0
00:00 Uhr
5.9
00:00 Uhr
5.9
00:00 Uhr
2.5
13:20 Uhr
05
Zeitraffer
15:17
12.9
14:45 Uhr
3.4
04:20 Uhr

88
03:40 Uhr
43
11:00 Uhr
1020.8
23:20 Uhr

1017.3
03:40 Uhr
1018.6
4,800
15:05 Uhr
2,400
2.997
327
961
13:50 Uhr
4.6
13:15 Uhr

08:51:00
6,8
1
38,6
17:00 Uhr

5
5.7
18:25 Uhr
-0.5
11:40 Uhr
3.2
16:00 Uhr
0
00:00 Uhr
5.9
00:00 Uhr
5.9
00:00 Uhr
3.9
13:25 Uhr
06
Zeitraffer
15:21
18.2
16:20 Uhr
5.3
01:00 Uhr

86
01:00 Uhr
33
14:25 Uhr
1022.9
10:10 Uhr

1020.1
19:50 Uhr
1021.6
0,000
00:00 Uhr
0,000
4.801
424
816
13:15 Uhr
5.1
13:00 Uhr

10:47:00
9,2
2
37,0
13:50 Uhr

5
5.3
09:20 Uhr
-0.2
20:45 Uhr
2.4
05:35 Uhr
0
00:00 Uhr
5.9
15:05 Uhr
5.9
01:05 Uhr
3.6
15:00 Uhr
07
Zeitraffer
15:25
17.3
17:10 Uhr
6.3
04:25 Uhr

82
23:05 Uhr
47
15:45 Uhr
1023.5
12:15 Uhr

1020.5
23:50 Uhr
1022.0
0,000
00:00 Uhr
0,000
2.794
265
937
14:05 Uhr
5.5
14:00 Uhr

04:56:00
7,3
2
29,0
16:25 Uhr

4
7.3
21:15 Uhr
1.0
00:05 Uhr
1.5
04:25 Uhr
0
00:00 Uhr
5.9
00:00 Uhr
5.9
00:00 Uhr
3.0
09:10 Uhr
08
Zeitraffer
15:28
22.8
16:25 Uhr
5.3
05:20 Uhr

91
05:35 Uhr
26
18:20 Uhr
1020.6
00:00 Uhr

1016.4
18:15 Uhr
1018.2
0,000
00:00 Uhr
0,000
4.547
406
793
12:50 Uhr
5.4
12:50 Uhr

12:35:00
4,1
1
30,6
15:55 Uhr

5
9.2
09:55 Uhr
-0.3
23:30 Uhr
5.3
05:20 Uhr
0
00:00 Uhr
5.9
09:55 Uhr
5.9
00:00 Uhr
3.2
16:00 Uhr
09
Zeitraffer
15:31
27.3
15:10 Uhr
6.9
05:10 Uhr

82
05:45 Uhr
28
16:35 Uhr
1017.5
00:25 Uhr

1011.7
23:40 Uhr
1015.4
0,000
00:00 Uhr
0,000
5.004
435
793
13:20 Uhr
5.6
13:05 Uhr

12:23:00
3,3
1
19,3
11:20 Uhr

3
8.0
13:10 Uhr
1.4
00:00 Uhr
6.9
05:10 Uhr
0
00:00 Uhr
5.9
00:00 Uhr
5.9
00:00 Uhr
2.3
13:05 Uhr
10
Zeitraffer
15:35
26.6
14:00 Uhr
10.9
03:55 Uhr

90
23:30 Uhr
38
11:30 Uhr
1011.6
00:00 Uhr

1003.1
19:35 Uhr
1006.6
2,400
18:40 Uhr
0,200
3.124
266
897
13:55 Uhr
5.2
13:55 Uhr

05:39:00
3,9
1
27,4
18:45 Uhr

4
14.8
19:40 Uhr
6.7
05:30 Uhr
10.9
03:55 Uhr
8
21:30 Uhr
5.9
00:00 Uhr
5.9
00:00 Uhr
2.7
18:45 Uhr
11
Zeitraffer
15:38
16.3
01:50 Uhr
4.1
23:45 Uhr

90
00:00 Uhr
69
06:45 Uhr
1012.1
23:55 Uhr

1003.0
00:35 Uhr
1006.7
2,400
08:15 Uhr
6,400
0.762
59
128
11:45 Uhr
1.0
11:40 Uhr

00:11:00
7,8
2
38,6
18:00 Uhr

5
14.6
01:45 Uhr
-0.7
23:45 Uhr
-2.7
17:40 Uhr
8
00:00 Uhr
5.9
00:00 Uhr
5.9
00:00 Uhr
3.3
03:50 Uhr
12
Zeitraffer
15:42
12.1
17:40 Uhr
0.9
04:10 Uhr

86
06:35 Uhr
45
17:30 Uhr
1017.0
12:50 Uhr

1012.0
00:00 Uhr
1015.4
0,000
00:00 Uhr
0,000
3.150
324
1027
11:45 Uhr
5.0
11:35 Uhr

07:48:00
8,1
2
33,8
16:15 Uhr

5
3.1
10:15 Uhr
-1.9
03:40 Uhr
0.6
04:45 Uhr
0
00:00 Uhr
1.0
17:35 Uhr
4.8
18:15 Uhr
0.0
00:00 Uhr
13
Zeitraffer
15:45
16.7
16:10 Uhr
5.2
05:50 Uhr

84
07:50 Uhr
35
16:10 Uhr
1014.5
00:10 Uhr

1010.9
20:10 Uhr
1012.8
0,000
00:00 Uhr
0,000
2.946
320
1112
13:00 Uhr
6.0
13:00 Uhr

05:04:00
4,3
1
22,5
11:20 Uhr

4
4.6
20:20 Uhr
0.1
18:20 Uhr
5.2
05:50 Uhr
0
00:00 Uhr
3.7
17:05 Uhr
5.9
00:00 Uhr
2.7
14:30 Uhr
14
Zeitraffer
15:48
15.2
16:45 Uhr
6.1
03:10 Uhr

83
03:10 Uhr
34
18:00 Uhr
1019.6
22:55 Uhr

1012.2
01:00 Uhr
1016.7
0,000
00:00 Uhr
0,000
3.226
318
1022
13:35 Uhr
5.8
13:30 Uhr

07:05:00
6,1
1
25,7
14:10 Uhr

4
5.3
08:30 Uhr
-1.4
18:15 Uhr
1.6
06:10 Uhr
0
00:00 Uhr
4.3
18:31 Uhr
5.9
00:00 Uhr
2.8
16:05 Uhr
15
Zeitraffer
15:51
16.1
11:45 Uhr
1.2
05:10 Uhr

87
05:05 Uhr
34
10:05 Uhr
1020.5
23:20 Uhr

1017.9
12:50 Uhr
1018.8
0,000
00:00 Uhr
0,000
4.216
404
1004
13:20 Uhr
5.9
13:15 Uhr

09:59:00
5,9
1
35,4
16:50 Uhr

5
3.9
20:30 Uhr
-2.7
10:05 Uhr
1.2
05:10 Uhr
0
00:00 Uhr
5.9
08:45 Uhr
5.9
00:00 Uhr
3.3
14:30 Uhr


 
Wetter Information zur Wetteranzeige
Zeitraffer
Tageslänge (hh:mm)
Höchsttemperatur in °C
Uhrzeit
Tiefsttemperatur in °C
Uhrzeit
Luftfeuchte (max., in %)
Uhrzeit
Luftfeuchte (min., in %)
Uhrzeit
Luftdruck (max., in hPa)
Uhrzeit
Luftdruck (min., in hPa)
Uhrzeit
Luftdruck (Ø, in hPa)
Regenrate (max, mm/h)
Uhrzeit
Niederschlag in mm
Verdunstung in mm
Solar in W/m² (Ø)
Solar in W/m² (max.)
UV-Index (max.)
Sonnenscheindauer (hh:mm)
Windrichtung (Ø)
Windstärke (Ø in km/h)
Windstärke (Ø in bft)
Windböe (max., in km/h)
Uhrzeit
Windböe (max., in bft)
Uhrzeit
Taupunkt (max., in °C)
Uhrzeit
Taupunkt (min., in °C)
Uhrzeit
Windchill (min., in °C)
Uhrzeit
Gewitterindex (max.)
Uhrzeit
Waldbrandindex (max.)
Uhrzeit
Graslandfeuerindex (max.)
Uhrzeit
Staubsturm-Index (max.)
Uhrzeit
16
Zeitraffer
15:54
15.9
17:30 Uhr
8.8
06:15 Uhr

71
06:40 Uhr
42
17:40 Uhr
1021.9
09:30 Uhr

1019.2
23:45 Uhr
1020.7
0,000
00:00 Uhr
0,000
3.835
321
1090
14:10 Uhr
6.0
13:00 Uhr

07:06:00
9,2
2
40,2
11:25 Uhr

5
4.6
21:55 Uhr
1.8
12:00 Uhr
3.3
06:25 Uhr
0
00:00 Uhr
5.9
10:15 Uhr
5.9
00:00 Uhr
3.6
11:30 Uhr
17
Zeitraffer
15:57
18.7
17:05 Uhr
9.1
05:45 Uhr

86
05:35 Uhr
35
16:30 Uhr
1022.2
12:10 Uhr

1018.3
02:00 Uhr
1020.7
0,000
00:00 Uhr
0,000
4.801
437
979
12:05 Uhr
6.0
13:20 Uhr

10:28:00
8,1
2
32,2
14:25 Uhr

5
7.2
06:25 Uhr
2.7
17:15 Uhr
6.2
08:05 Uhr
0
00:00 Uhr
5.9
10:25 Uhr
5.9
00:00 Uhr
3.5
16:50 Uhr
18
Zeitraffer
16:00
21.9
16:25 Uhr
9.1
05:45 Uhr

74
05:45 Uhr
39
16:00 Uhr
1022.4
09:25 Uhr

1019.0
20:30 Uhr
1020.7
0,000
00:00 Uhr
0,000
4.216
327
829
10:50 Uhr
5.3
12:40 Uhr

07:56:00
7,3
2
32,2
13:25 Uhr

5
9.3
22:35 Uhr
3.7
00:00 Uhr
9.1
05:45 Uhr
2
22:10 Uhr
5.9
00:00 Uhr
5.9
00:00 Uhr
3.5
12:30 Uhr
19
Zeitraffer
16:03
20.2
17:15 Uhr
11.6
02:35 Uhr

81
02:35 Uhr
50
15:50 Uhr
1021.1
23:55 Uhr

1018.7
05:25 Uhr
1019.6
0,000
00:00 Uhr
0,000
3.150
244
720
15:30 Uhr
6.7
12:00 Uhr

03:45:00
6,7
1
35,4
12:45 Uhr

5
10.9
09:40 Uhr
8.4
01:30 Uhr
10.0
07:30 Uhr
2
00:00 Uhr
5.9
12:05 Uhr
5.9
00:00 Uhr
3.5
12:45 Uhr
20
Zeitraffer
16:06
23.8
15:45 Uhr
11.2
00:20 Uhr

83
00:10 Uhr
28
15:50 Uhr
1023.8
23:45 Uhr

1020.9
05:25 Uhr
1021.8
0,000
00:00 Uhr
0,000
4.801
406
946
13:05 Uhr
6.4
13:00 Uhr

09:48:00
4,6
1
27,4
13:15 Uhr

4
8.9
01:00 Uhr
2.0
21:50 Uhr
11.2
00:20 Uhr
2
01:00 Uhr
5.9
09:30 Uhr
5.9
00:00 Uhr
2.8
13:45 Uhr
21
Zeitraffer
16:09
24.4
15:20 Uhr
8.3
03:55 Uhr

77
03:55 Uhr
24
16:00 Uhr
1025.3
10:00 Uhr

1023.1
18:25 Uhr
1024.0
0,000
00:00 Uhr
0,000
4.928
419
797
13:15 Uhr
6.0
12:45 Uhr

12:44:00
4,3
1
19,3
12:25 Uhr

3
7.1
08:55 Uhr
1.2
16:55 Uhr
8.3
03:55 Uhr
0
00:00 Uhr
5.9
08:40 Uhr
5.9
00:00 Uhr
2.3
12:55 Uhr
22
Zeitraffer
16:11
24.1
14:35 Uhr
9.2
04:40 Uhr

69
23:50 Uhr
29
11:40 Uhr
1023.8
00:25 Uhr

1019.0
20:20 Uhr
1021.6
2,400
22:20 Uhr
0,400
4.064
310
861
11:00 Uhr
5.5
12:30 Uhr

07:30:00
5,0
1
30,6
11:55 Uhr

5
10.1
22:20 Uhr
2.0
00:15 Uhr
9.2
04:40 Uhr
2
22:05 Uhr
5.9
00:00 Uhr
5.9
00:00 Uhr
2.8
11:20 Uhr
23
Zeitraffer
16:14
20.0
15:40 Uhr
11.7
23:30 Uhr

94
07:15 Uhr
45
15:45 Uhr
1023.4
23:40 Uhr

1017.9
04:40 Uhr
1019.3
4,800
02:25 Uhr
1,800
2.489
197
708
11:25 Uhr
5.1
13:25 Uhr

02:20:00
6,9
1
33,8
19:30 Uhr

5
14.8
09:30 Uhr
7.4
15:45 Uhr
9.9
03:30 Uhr
6
09:05 Uhr
5.9
00:00 Uhr
5.9
00:00 Uhr
3.9
15:10 Uhr
24
Zeitraffer
16:17
17.1
13:00 Uhr
9.3
03:50 Uhr

93
22:50 Uhr
55
12:55 Uhr
1024.9
21:20 Uhr

1022.7
12:30 Uhr
1023.7
21,600
20:55 Uhr
12,400
2.667
256
916
11:00 Uhr
4.8
12:30 Uhr

06:01:00
7,8
2
40,2
13:05 Uhr

5
10.9
11:55 Uhr
6.5
13:10 Uhr
6.3
14:25 Uhr
2
11:50 Uhr
4.9
11:05 Uhr
5.9
00:00 Uhr
4.2
13:20 Uhr
25
Zeitraffer
16:20
13.9
17:35 Uhr
10.7
06:05 Uhr

93
01:00 Uhr
71
11:00 Uhr
1031.9
23:45 Uhr

1024.3
00:20 Uhr
1027.4
9,600
08:25 Uhr
1,800
2.081
178
1085
12:50 Uhr
4.7
13:40 Uhr

01:00:00
8,4
2
37,0
10:30 Uhr

5
10.6
13:40 Uhr
8.0
11:10 Uhr
6.1
09:00 Uhr
2
00:00 Uhr
0.0
00:00 Uhr
0.0
00:00 Uhr
0.0
00:00 Uhr
26
Zeitraffer
16:22
23.1
16:20 Uhr
8.0
04:50 Uhr

95
05:50 Uhr
32
18:15 Uhr
1035.0
09:25 Uhr

1032.1
00:00 Uhr
1033.8
0,000
00:00 Uhr
0,000
4.648
419
969
13:05 Uhr
6.5
13:20 Uhr

11:52:00
4,9
1
22,5
15:25 Uhr

4
11.1
09:25 Uhr
4.3
17:55 Uhr
8.0
04:50 Uhr
2
00:00 Uhr
0.0
00:00 Uhr
3.2
18:30 Uhr
0.0
00:00 Uhr
27
Zeitraffer
16:24
25.2
12:05 Uhr
6.9
04:55 Uhr

90
05:00 Uhr
32
12:05 Uhr
1034.6
00:40 Uhr

1028.5
20:45 Uhr
1032.0
2,400
23:15 Uhr
0,400
4.699
412
988
12:30 Uhr
6.6
12:50 Uhr

09:56:00
4,1
1
22,5
18:25 Uhr

4
11.6
23:30 Uhr
5.3
04:40 Uhr
6.9
04:55 Uhr
4
23:25 Uhr
0.0
00:00 Uhr
3.9
16:00 Uhr
0.0
00:00 Uhr
28
Zeitraffer
16:27
21.1
15:50 Uhr
11.9
23:50 Uhr

83
00:00 Uhr
36
16:30 Uhr
1030.3
08:15 Uhr

1027.9
17:20 Uhr
1029.4
0,000
00:00 Uhr
0,000
4.318
345
1044
14:25 Uhr
6.0
12:55 Uhr

07:34:00
8,3
2
32,2
18:15 Uhr

5
11.6
00:00 Uhr
4.9
17:15 Uhr
9.5
07:55 Uhr
4
00:00 Uhr
2.9
16:05 Uhr
5.1
16:00 Uhr
2.3
17:45 Uhr
29
Zeitraffer
16:29
22.6
13:35 Uhr
8.1
05:05 Uhr

82
05:05 Uhr
30
11:55 Uhr
1030.7
07:55 Uhr

1025.7
20:50 Uhr
1028.6
0,000
00:00 Uhr
0,000
4.166
315
1079
13:30 Uhr
7.1
12:30 Uhr

08:33:00
6,4
1
27,4
17:45 Uhr

4
7.2
21:00 Uhr
2.2
09:50 Uhr
6.9
00:55 Uhr
0
00:00 Uhr
3.7
11:55 Uhr
5.6
16:00 Uhr
2.5
12:20 Uhr
30
Zeitraffer
16:31
19.9
16:30 Uhr
8.8
04:50 Uhr

70
05:25 Uhr
37
16:35 Uhr
1026.4
02:50 Uhr

1022.1
18:20 Uhr
1024.4
0,000
00:00 Uhr
0,000
4.877
362
1024
11:05 Uhr
5.9
11:25 Uhr

09:49:00
9,3
2
37,0
11:35 Uhr

5
6.3
21:25 Uhr
3.3
04:35 Uhr
8.6
23:10 Uhr
0
00:00 Uhr
5.1
17:00 Uhr
5.9
00:00 Uhr
4.0
12:20 Uhr
31
Zeitraffer
16:33
23.9
15:50 Uhr
10.1
04:30 Uhr

80
04:35 Uhr
36
16:50 Uhr
1023.1
00:00 Uhr

1020.4
17:40 Uhr
1021.6
0,000
00:00 Uhr
0,000
4.928
373
843
13:05 Uhr
6.8
13:05 Uhr

08:49:00
8,8
2
33,8
12:55 Uhr

5
10.4
12:35 Uhr
6.1
00:15 Uhr
7.7
04:40 Uhr
2
12:20 Uhr
5.5
16:00 Uhr
5.9
00:00 Uhr
3.7
19:05 Uhr
Stationsstandorte || Wetterblog || Wissenswertes || Downloads || Seitenhistorie || Partner || Impressum / Datenschutz